Airfield :
LOGIN :

Register | Disclaimer

   EN    FR    IT 

 










Legend :    VFR   Marginal VFR   IFR   Intensive IFR   Very Intensive IFR
Visi :
Ceiling :
>= 8 km
>= 3000ft
5 to 8 km
1000 to 3000 ft
1500m to 5 km
500 to 1000 ft
800 to 1500m
200 to 500 ft
< 800m
< 200 ft
Symbols :   Thunderstorms  Fog  Heavy snow  Heavy precipitations  Wind > 20 kt
SIGMETs :     Misc.  Thunderstorms  Icing  Turbulence  Mountain Waves  Volcanic Ashes






- Airport Elevation : 20 ft
- IATA code : OIZ


DTTB - Sidi Ahmed Air Base

CURRENT METAR :
  • 220000Z 00000KT 8000 FEW020 09/07 Q1024

EXPIRED METARs :
  • 212300Z 30004KT 8000 FEW020 11/09 Q1024
  • 212200Z 30003KT 8000 SCT020TCU 10/08 Q1025
  • 212100Z 27003KT 240V300 8000 SCT020TCU 11/09 Q1025
  • 212000Z 26003KT 9999 SCT020TCU 11/09 Q1025

TAF TAF DTTB
Valid from the 21 at 22:00 until the 22 at 07:00 UTC


212100Z 2122/2207 VRB02KT 8000 FEW020



MET'MAP, your aeronautical weather chart ! - Copyright ORBIFLY December 2007 - Disclaimer

ORBIFLY MET'MAP TEAM :

Programming & Development : Alexandra Zaïnal
Original concept : Baudouin d'Aumeries
Technical & hardware support : Manuel Goepfert
Assistance : Marc-Olivier Méhu




SOURCES & CREDITS :

   NOAA